TimeEET,TemperatureF,Dew PointF,Humidity,Sea Level PressureIn,VisibilityMPH,Wind Direction,Wind SpeedMPH,Gust SpeedMPH,PrecipitationIn,Events,Conditions,WindDirDegrees,DateUTC
12:50 AM,17.6,15.8,93,30.21,0.9,Calm,Calm,-,N/A,,Scattered Clouds,0,2012-12-30 22:50:00
1:50 AM,10.4,8.6,92,30.21,0.3,South,4.6,-,N/A,Fog,Light Freezing Fog,180,2012-12-30 23:50:00
2:00 AM,,,,,,Calm,Calm,,,,,,2012-12-31 00:00:00
2:50 AM,10.4,6.8,85,30.21,-9999.0,ESE,3.5,-,N/A,Fog,Light Freezing Fog,120,2012-12-31 00:50:00
3:50 AM,10.4,8.6,92,30.21,-9999.0,ESE,3.5,-,N/A,Fog,Light Freezing Fog,120,2012-12-31 01:50:00
4:50 AM,10.4,8.6,92,30.21,1.2,SSE,2.3,-,N/A,,Mostly Cloudy,150,2012-12-31 02:50:00
5:50 AM,12.2,10.4,92,30.21,-9999.0,SSE,4.6,-,N/A,,Clear,150,2012-12-31 03:50:00
6:50 AM,12.2,10.4,92,30.21,-9999.0,SE,4.6,-,N/A,,Clear,140,2012-12-31 04:50:00
7:50 AM,14.0,12.2,93,30.24,6.2,ESE,4.6,-,N/A,,Scattered Clouds,110,2012-12-31 05:50:00
8:00 AM,20,13,65,,9,East,3.5,,,,Partly Cloudy,100,2012-12-31 06:00:00
8:50 AM,15.8,14.0,93,30.24,-9999.0,ESE,4.6,-,N/A,,Clear,110,2012-12-31 06:50:00
9:50 AM,17.6,15.8,93,30.24,-9999.0,SSE,4.6,-,N/A,,Clear,150,2012-12-31 07:50:00
10:50 AM,19.4,17.6,93,30.24,-9999.0,SE,5.8,-,N/A,,Clear,140,2012-12-31 08:50:00
11:50 AM,21.2,19.4,93,30.21,-9999.0,SE,4.6,-,N/A,,Clear,140,2012-12-31 09:50:00
12:50 PM,21.2,21.2,100,30.21,-9999.0,SE,4.6,-,N/A,,Clear,130,2012-12-31 10:50:00
1:50 PM,21.2,19.4,93,30.21,-9999.0,SSE,4.6,-,N/A,,Clear,160,2012-12-31 11:50:00
2:50 PM,21.2,17.6,86,30.21,-9999.0,SE,5.8,-,N/A,,Clear,140,2012-12-31 12:50:00
3:50 PM,19.4,17.6,93,30.18,-9999.0,ESE,4.6,-,N/A,,Clear,120,2012-12-31 13:50:00
4:50 PM,15.8,14.0,93,30.18,-9999.0,SE,4.6,-,N/A,,Clear,130,2012-12-31 14:50:00
5:50 PM,14.0,14.0,100,30.18,-9999.0,ESE,8.1,-,N/A,,Clear,120,2012-12-31 15:50:00
6:50 PM,15.8,14.0,93,30.18,-9999.0,ESE,8.1,-,N/A,,Clear,120,2012-12-31 16:50:00
7:50 PM,14.0,12.2,93,30.15,-9999.0,East,11.5,-,N/A,,Clear,100,2012-12-31 17:50:00
8:00 PM,25,18,63,,9,NNE,2.3,,,,,20,2012-12-31 18:00:00
8:50 PM,14.0,10.4,86,30.15,-9999.0,ESE,9.2,-,N/A,,Clear,110,2012-12-31 18:50:00
9:50 PM,15.8,12.2,86,30.15,-9999.0,SE,8.1,-,N/A,,Clear,130,2012-12-31 19:50:00
10:50 PM,12.2,8.6,85,30.15,-9999.0,ESE,4.6,-,N/A,,Clear,120,2012-12-31 20:50:00
11:50 PM,12.2,6.8,79,30.15,-9999.0,ESE,9.2,-,N/A,,Clear,110,2012-12-31 21:50:00